| time (UTC) | temp F | wind direction | speed MPH | gust MPH | rain 1hr in | rain 24hr in | rain mn in | humidity % | barometer mb |
| 20260831234036 | 88 | 264 | 0.0 | 2.0 | 0.00 | 0.00 | 0.00 | 64 | 1013.3 |
| 20260831233533 | 88 | 264 | 1.0 | 2.0 | 0.00 | 0.00 | 0.00 | 63 | 1013.4 |
| 20260831233049 | 88 | 264 | 1.0 | 2.0 | 0.00 | 0.00 | 0.00 | 64 | 1013.4 |
| 20260831232546 | 88 | 264 | 0.0 | 2.0 | 0.00 | 0.00 | 0.00 | 63 | 1013.4 |
| 20260831232043 | 89 | 264 | 1.0 | 2.0 | 0.00 | 0.00 | 0.00 | 63 | 1013.4 |
| 20260831231558 | 89 | 264 | 1.0 | 3.0 | 0.00 | 0.00 | 0.00 | 64 | 1013.4 |
| 20260831231034 | 89 | 264 | 1.0 | 3.0 | 0.00 | 0.00 | 0.00 | 62 | 1013.4 |
| 20260831230609 | 89 | 287 | 1.0 | 5.0 | 0.00 | 0.00 | 0.00 | 64 | 1013.4 |
| 20260831230041 | 89 | 287 | 2.0 | 5.0 | 0.00 | 0.00 | 0.00 | 63 | 1013.5 |
| 20260831225538 | 89 | 199 | 1.0 | 3.0 | 0.00 | 0.00 | 0.00 | 63 | 1013.5 |
| 20260831225034 | 89 | 198 | 2.0 | 5.0 | 0.00 | 0.00 | 0.00 | 63 | 1013.4 |
| 20260831224531 | 88 | 238 | 0.0 | 3.0 | 0.00 | 0.00 | 0.00 | 64 | 1013.4 |
| 20260831224030 | 89 | 239 | 2.0 | 3.0 | 0.00 | 0.00 | 0.00 | 64 | 1013.4 |
| 20260831223606 | 89 | 221 | 2.0 | 3.0 | 0.00 | 0.00 | 0.00 | 63 | 1013.4 |
| 20260831223044 | 89 | 222 | 2.0 | 4.0 | 0.00 | 0.00 | 0.00 | 63 | 1013.4 |
| 20260831222540 | 88 | 220 | 2.0 | 4.0 | 0.00 | 0.00 | 0.00 | 63 | 1013.4 |
| 20260831222036 | 88 | 221 | 1.0 | 4.0 | 0.00 | 0.00 | 0.00 | 63 | 1013.5 |
| 20260831221532 | 88 | 243 | 1.0 | 3.0 | 0.00 | 0.00 | 0.00 | 63 | 1013.5 |
| 20260831221048 | 88 | 276 | 1.0 | 3.0 | 0.00 | 0.00 | 0.00 | 62 | 1013.5 |
| 20260831220556 | 88 | 283 | 1.0 | 4.0 | 0.00 | 0.00 | 0.00 | 63 | 1013.4 |
| 20260831220034 | 88 | 286 | 2.0 | 5.0 | 0.00 | 0.00 | 0.00 | 63 | 1013.4 |
| 20260831215530 | 89 | 233 | 3.0 | 6.0 | 0.00 | 0.00 | 0.00 | 60 | 1013.4 |
| 20260831215046 | 89 | 218 | 3.0 | 6.0 | 0.00 | 0.00 | 0.00 | 61 | 1013.5 |
| 20260831214541 | 89 | 208 | 0.0 | 4.0 | 0.00 | 0.00 | 0.00 | 64 | 1013.5 |
| 20260831214038 | 88 | 198 | 3.0 | 5.0 | 0.00 | 0.00 | 0.00 | 63 | 1013.5 |
| 20260831213535 | 88 | 207 | 3.0 | 5.0 | 0.00 | 0.00 | 0.00 | 62 | 1013.7 |
| 20260831213032 | 88 | 217 | 3.0 | 5.0 | 0.00 | 0.00 | 0.00 | 63 | 1013.8 |
| 20260831212548 | 88 | 251 | 2.0 | 5.0 | 0.00 | 0.00 | 0.00 | 64 | 1013.7 |
| 20260831212045 | 88 | 224 | 3.0 | 5.0 | 0.00 | 0.00 | 0.00 | 62 | 1013.7 |
| 20260831211540 | 88 | 218 | 2.0 | 5.0 | 0.00 | 0.00 | 0.00 | 63 | 1013.7 |
| 20260831211040 | 88 | 219 | 2.0 | 4.0 | 0.00 | 0.00 | 0.00 | 63 | 1013.7 |
| 20260831210549 | 88 | 213 | 3.0 | 4.0 | 0.00 | 0.00 | 0.00 | 62 | 1013.7 |
| 20260831210047 | 89 | 223 | 3.0 | 5.0 | 0.00 | 0.00 | 0.00 | 61 | 1013.7 |
| 20260831205604 | 89 | 225 | 2.0 | 7.0 | 0.00 | 0.00 | 0.00 | 59 | 1013.8 |
| 20260831205039 | 90 | 205 | 2.0 | 5.0 | 0.00 | 0.00 | 0.00 | 61 | 1013.7 |
| 20260831204536 | 89 | 215 | 3.0 | 6.0 | 0.00 | 0.00 | 0.00 | 60 | 1013.8 |
| 20260831204031 | 90 | 237 | 3.0 | 6.0 | 0.00 | 0.00 | 0.00 | 60 | 1013.8 |
| 20260831203547 | 89 | 215 | 3.0 | 6.0 | 0.00 | 0.00 | 0.00 | 64 | 1013.9 |
| 20260831203045 | 89 | 266 | 2.0 | 6.0 | 0.00 | 0.00 | 0.00 | 64 | 1013.9 |
| 20260831202601 | 88 | 235 | 2.0 | 5.0 | 0.00 | 0.00 | 0.00 | 64 | 1013.9 |
| 20260831202058 | 88 | 221 | 3.0 | 5.0 | 0.00 | 0.00 | 0.00 | 64 | 1013.9 |
| 20260831201532 | 88 | 219 | 2.0 | 5.0 | 0.00 | 0.00 | 0.00 | 65 | 1014.0 |
| 20260831201112 | 87 | 274 | 3.0 | 5.0 | 0.00 | 0.00 | 0.00 | 65 | 1014.0 |
| 20260831200558 | 87 | 238 | 2.0 | 6.0 | 0.00 | 0.00 | 0.00 | 66 | 1013.9 |
| 20260831200056 | 87 | 271 | 2.0 | 6.0 | 0.00 | 0.00 | 0.00 | 67 | 1014.0 |
| 20260831195530 | 87 | 211 | 3.0 | 6.0 | 0.00 | 0.00 | 0.00 | 67 | 1013.9 |
| 20260831195046 | 87 | 195 | 4.0 | 6.0 | 0.00 | 0.00 | 0.00 | 68 | 1014.1 |
| 20260831194542 | 87 | 190 | 2.0 | 5.0 | 0.00 | 0.00 | 0.00 | 67 | 1014.0 |
| 20260831194038 | 87 | 217 | 3.0 | 5.0 | 0.00 | 0.00 | 0.00 | 68 | 1014.1 |
| 20260831193533 | 87 | 223 | 2.0 | 4.0 | 0.00 | 0.00 | 0.00 | 68 | 1014.0 |
| 20260831193049 | 87 | 238 | 3.0 | 4.0 | 0.00 | 0.00 | 0.00 | 65 | 1013.9 |
| 20260831192544 | 88 | 242 | 2.0 | 4.0 | 0.00 | 0.00 | 0.00 | 64 | 1013.9 |
| 20260831192100 | 88 | 271 | 1.0 | 5.0 | 0.00 | 0.00 | 0.00 | 61 | 1013.9 |
| 20260831191534 | 88 | 276 | 2.0 | 5.0 | 0.00 | 0.00 | 0.00 | 61 | 1014.0 |
| 20260831191035 | 89 | 255 | 3.0 | 5.0 | 0.00 | 0.00 | 0.00 | 62 | 1013.9 |
| 20260831190626 | 89 | 206 | 2.0 | 5.0 | 0.00 | 0.00 | 0.00 | 63 | 1013.9 |
| 20260831190042 | 89 | 207 | 2.0 | 5.0 | 0.00 | 0.00 | 0.00 | 66 | 1013.8 |
| 20260831185539 | 89 | 210 | 2.0 | 4.0 | 0.00 | 0.00 | 0.00 | 64 | 1013.8 |
| 20260831185036 | 89 | 198 | 2.0 | 5.0 | 0.00 | 0.00 | 0.00 | 63 | 1013.9 |
| 20260831184531 | 89 | 195 | 2.0 | 6.0 | 0.00 | 0.00 | 0.00 | 64 | 1013.8 |
| 20260831184048 | 89 | 194 | 3.0 | 6.0 | 0.00 | 0.00 | 0.00 | 65 | 1013.7 |
| 20260831183543 | 89 | 217 | 2.0 | 4.0 | 0.00 | 0.00 | 0.00 | 64 | 1013.7 |
| 20260831183059 | 89 | 216 | 1.0 | 3.0 | 0.00 | 0.00 | 0.00 | 65 | 1013.7 |
| 20260831182553 | 89 | 216 | 1.0 | 4.0 | 0.00 | 0.00 | 0.00 | 63 | 1013.8 |
| 20260831182110 | 89 | 217 | 2.0 | 4.0 | 0.00 | 0.00 | 0.00 | 62 | 1013.9 |
| 20260831181545 | 89 | 215 | 2.0 | 4.0 | 0.00 | 0.00 | 0.00 | 63 | 1013.8 |
| 20260831181103 | 88 | 215 | 2.0 | 5.0 | 0.00 | 0.00 | 0.00 | 64 | 1013.8 |
| 20260831180550 | 88 | 219 | 1.0 | 5.0 | 0.00 | 0.00 | 0.00 | 65 | 1013.8 |
| 20260831180048 | 88 | 234 | 2.0 | 4.0 | 0.00 | 0.00 | 0.00 | 66 | 1013.7 |
| 20260831175544 | 88 | 217 | 1.0 | 4.0 | 0.00 | 0.00 | 0.00 | 65 | 1013.7 |
| 20260831175040 | 87 | 206 | 2.0 | 6.0 | 0.00 | 0.00 | 0.00 | 66 | 1013.7 |
| 20260831174537 | 87 | 193 | 3.0 | 6.0 | 0.00 | 0.00 | 0.00 | 68 | 1013.9 |
| 20260831174052 | 86 | 229 | 2.0 | 4.0 | 0.00 | 0.00 | 0.00 | 64 | 1013.9 |
| 20260831173547 | 86 | 252 | 2.0 | 4.0 | 0.00 | 0.00 | 0.00 | 66 | 1013.9 |
| 20260831173043 | 85 | 245 | 1.0 | 4.0 | 0.00 | 0.00 | 0.00 | 66 | 1013.9 |
| 20260831172539 | 85 | 249 | 1.0 | 3.0 | 0.00 | 0.00 | 0.00 | 67 | 1014.0 |
| 20260831172036 | 85 | 249 | 1.0 | 3.0 | 0.00 | 0.00 | 0.00 | 67 | 1013.9 |
| 20260831171552 | 85 | 257 | 2.0 | 4.0 | 0.00 | 0.00 | 0.00 | 68 | 1013.9 |
| 20260831171046 | 84 | 261 | 2.0 | 6.0 | 0.00 | 0.00 | 0.00 | 68 | 1013.8 |
| 20260831170554 | 84 | 331 | 2.0 | 6.0 | 0.00 | 0.00 | 0.00 | 68 | 1013.7 |
| 20260831170051 | 84 | 333 | 3.0 | 6.0 | 0.00 | 0.00 | 0.00 | 67 | 1013.7 |
| 20260831165530 | 83 | 269 | 2.0 | 5.0 | 0.00 | 0.00 | 0.00 | 71 | 1013.6 |
| 20260831165103 | 83 | 327 | 2.0 | 5.0 | 0.00 | 0.00 | 0.00 | 71 | 1013.7 |
| 20260831164559 | 83 | 286 | 2.0 | 5.0 | 0.00 | 0.00 | 0.00 | 70 | 1013.6 |
| 20260831164054 | 82 | 285 | 2.0 | 5.0 | 0.00 | 0.00 | 0.00 | 70 | 1013.4 |
| 20260831163534 | 82 | 284 | 3.0 | 5.0 | 0.00 | 0.00 | 0.00 | 71 | 1013.4 |
| 20260831163049 | 82 | 328 | 2.0 | 6.0 | 0.00 | 0.00 | 0.00 | 71 | 1013.4 |
| 20260831162545 | 82 | 281 | 2.0 | 6.0 | 0.00 | 0.00 | 0.00 | 70 | 1013.5 |
| 20260831162041 | 82 | 314 | 2.0 | 4.0 | 0.00 | 0.00 | 0.00 | 71 | 1013.5 |
| 20260831161538 | 82 | 333 | 3.0 | 4.0 | 0.00 | 0.00 | 0.00 | 70 | 1013.4 |
| 20260831161054 | 81 | 279 | 1.0 | 4.0 | 0.00 | 0.00 | 0.00 | 71 | 1013.2 |
| 20260831160606 | 81 | 312 | 3.0 | 4.0 | 0.00 | 0.00 | 0.00 | 70 | 1013.2 |
| 20260831160040 | 81 | 312 | 2.0 | 5.0 | 0.00 | 0.00 | 0.00 | 71 | 1013.1 |
| 20260831155536 | 81 | 360 | 3.0 | 5.0 | 0.00 | 0.00 | 0.00 | 71 | 1012.8 |
| 20260831155032 | 81 | 335 | 0.0 | 6.0 | 0.00 | 0.00 | 0.00 | 72 | 1012.8 |
| 20260831154610 | 80 | 337 | 2.0 | 7.0 | 0.00 | 0.00 | 0.00 | 73 | 1012.9 |
| 20260831154045 | 80 | 341 | 3.0 | 7.0 | 0.00 | 0.00 | 0.00 | 73 | 1012.9 |
| 20260831153538 | 80 | 323 | 2.0 | 6.0 | 0.00 | 0.00 | 0.00 | 75 | 1012.5 |
| 20260831153033 | 80 | 280 | 2.0 | 5.0 | 0.00 | 0.00 | 0.00 | 75 | 1012.8 |
| 20260831152549 | 80 | 321 | 2.0 | 4.0 | 0.00 | 0.00 | 0.00 | 75 | 1013.0 |
| 20260831152045 | 80 | 328 | 3.0 | 5.0 | 0.00 | 0.00 | 0.00 | 75 | 1012.9 |
| 20260831151541 | 80 | 326 | 2.0 | 5.0 | 0.00 | 0.00 | 0.00 | 77 | 1012.8 |
| 20260831151037 | 80 | 342 | 2.0 | 5.0 | 0.00 | 0.00 | 0.00 | 79 | 1012.9 |
| 20260831150608 | 80 | 295 | 2.0 | 5.0 | 0.00 | 0.00 | 0.00 | 79 | 1013.1 |
| 20260831150046 | 80 | 288 | 4.0 | 5.0 | 0.00 | 0.00 | 0.00 | 79 | 1012.8 |
| 20260831145539 | 79 | 296 | 1.0 | 3.0 | 0.00 | 0.00 | 0.00 | 80 | 1012.4 |
| 20260831145039 | 79 | 296 | 2.0 | 3.0 | 0.00 | 0.00 | 0.00 | 79 | 1012.4 |
| 20260831144536 | 79 | 296 | 0.0 | 3.0 | 0.00 | 0.00 | 0.00 | 81 | 1012.2 |
| 20260831144032 | 79 | 296 | 2.0 | 3.0 | 0.00 | 0.00 | 0.00 | 80 | 1012.5 |
| 20260831143547 | 79 | 296 | 1.0 | 3.0 | 0.00 | 0.00 | 0.00 | 80 | 1012.4 |
| 20260831143044 | 79 | 296 | 0.0 | 2.0 | 0.00 | 0.00 | 0.00 | 81 | 1012.4 |
| 20260831142539 | 78 | 296 | 1.0 | 2.0 | 0.00 | 0.00 | 0.00 | 81 | 1012.6 |
| 20260831142036 | 78 | 297 | 0.0 | 3.0 | 0.00 | 0.00 | 0.00 | 81 | 1012.7 |
| 20260831141533 | 78 | 296 | 2.0 | 3.0 | 0.00 | 0.00 | 0.00 | 81 | 1012.8 |
| 20260831141049 | 78 | 296 | 1.0 | 2.0 | 0.00 | 0.00 | 0.00 | 82 | 1012.5 |
| 20260831140450 | 78 | 296 | 1.0 | 5.0 | 0.00 | 0.00 | 0.00 | 82 | 1012.7 |
| 20260831135531 | 77 | 349 | 2.0 | 5.0 | 0.00 | 0.00 | 0.00 | 82 | 1012.4 |
| 20260831135048 | 78 | 9 | 2.0 | 5.0 | 0.00 | 0.00 | 0.00 | 82 | 1012.2 |
| 20260831134543 | 78 | 276 | 3.0 | 5.0 | 0.00 | 0.00 | 0.00 | 81 | 1012.9 |
| 20260831134100 | 78 | 255 | 3.0 | 7.0 | 0.00 | 0.00 | 0.00 | 82 | 1012.6 |
| 20260831133554 | 78 | 346 | 3.0 | 7.0 | 0.00 | 0.00 | 0.00 | 82 | 1012.5 |
| 20260831133049 | 78 | 286 | 3.0 | 7.0 | 0.00 | 0.00 | 0.00 | 82 | 1012.6 |
| 20260831132608 | 77 | 279 | 1.0 | 6.0 | 0.00 | 0.00 | 0.00 | 83 | 1012.7 |
| 20260831132104 | 77 | 257 | 3.0 | 6.0 | 0.00 | 0.00 | 0.00 | 83 | 1012.6 |
| 20260831131539 | 77 | 272 | 1.0 | 7.0 | 0.00 | 0.00 | 0.00 | 83 | 1012.3 |
| 20260831131035 | 77 | 272 | 3.0 | 7.0 | 0.00 | 0.00 | 0.00 | 84 | 1012.3 |
| 20260831130609 | 77 | 266 | 2.0 | 4.0 | 0.00 | 0.00 | 0.00 | 84 | 1012.4 |
| 20260831130043 | 77 | 259 | 2.0 | 4.0 | 0.00 | 0.00 | 0.00 | 84 | 1012.7 |
| 20260831125538 | 77 | 259 | 1.0 | 5.0 | 0.00 | 0.00 | 0.00 | 84 | 1012.6 |
| 20260831125055 | 77 | 258 | 2.0 | 5.0 | 0.00 | 0.00 | 0.00 | 84 | 1012.6 |
| 20260831124611 | 77 | 264 | 2.0 | 5.0 | 0.00 | 0.00 | 0.00 | 84 | 1012.4 |
| 20260831124044 | 77 | 273 | 2.0 | 4.0 | 0.00 | 0.00 | 0.00 | 85 | 1012.4 |
| 20260831123602 | 77 | 273 | 2.0 | 5.0 | 0.00 | 0.00 | 0.00 | 85 | 1012.5 |
| 20260831123057 | 76 | 222 | 1.0 | 5.0 | 0.00 | 0.00 | 0.00 | 86 | 1012.4 |
| 20260831122533 | 76 | 221 | 2.0 | 5.0 | 0.00 | 0.00 | 0.00 | 86 | 1012.3 |
| 20260831122049 | 76 | 240 | 1.0 | 3.0 | 0.00 | 0.00 | 0.00 | 86 | 1012.3 |
| 20260831121546 | 76 | 203 | 1.0 | 3.0 | 0.00 | 0.00 | 0.00 | 85 | 1012.2 |
| 20260831121041 | 76 | 203 | 0.0 | 3.0 | 0.00 | 0.00 | 0.00 | 85 | 1011.9 |
| 20260831120554 | 76 | 203 | 1.0 | 3.0 | 0.00 | 0.00 | 0.00 | 85 | 1011.9 |
| 20260831120031 | 76 | 203 | 1.0 | 2.0 | 0.00 | 0.00 | 0.00 | 85 | 1011.7 |
| 20260831115548 | 76 | 203 | 1.0 | 2.0 | 0.00 | 0.00 | 0.00 | 85 | 1011.6 |
| 20260831115044 | 76 | 202 | 1.0 | 2.0 | 0.00 | 0.00 | 0.00 | 85 | 1011.5 |
| 20260831114538 | 76 | 203 | 1.0 | 2.0 | 0.00 | 0.00 | 0.00 | 86 | 1011.3 |
| 20260831114034 | 76 | 203 | 0.0 | 4.0 | 0.00 | 0.00 | 0.00 | 86 | 1011.3 |
| 20260831113547 | 76 | 202 | 2.0 | 4.0 | 0.00 | 0.00 | 0.00 | 85 | 1011.2 |
| 20260831113042 | 76 | 203 | 1.0 | 2.0 | 0.00 | 0.00 | 0.00 | 86 | 1011.0 |
| 20260831112538 | 76 | 203 | 1.0 | 2.0 | 0.00 | 0.00 | 0.00 | 86 | 1011.0 |
| 20260831112054 | 76 | 203 | 0.0 | 2.0 | 0.00 | 0.00 | 0.00 | 86 | 1011.0 |
| 20260831111548 | 76 | 203 | 0.0 | 2.0 | 0.00 | 0.00 | 0.00 | 85 | 1011.0 |
| 20260831111044 | 76 | 203 | 1.0 | 2.0 | 0.00 | 0.00 | 0.00 | 85 | 1011.0 |
| 20260831110551 | 76 | 203 | 1.0 | 1.0 | 0.00 | 0.00 | 0.00 | 85 | 1010.8 |
| 20260831110049 | 76 | 203 | 1.0 | 1.0 | 0.00 | 0.00 | 0.00 | 85 | 1010.9 |
| 20260831105545 | 76 | 203 | 0.0 | 0.0 | 0.00 | 0.00 | 0.00 | 85 | 1010.8 |
| 20260831105041 | 76 | 203 | 0.0 | 1.0 | 0.00 | 0.00 | 0.00 | 85 | 1010.9 |
| 20260831104537 | 76 | 203 | 0.0 | 2.0 | 0.00 | 0.00 | 0.00 | 85 | 1010.8 |
| 20260831104034 | 76 | 203 | 0.0 | 2.0 | 0.00 | 0.00 | 0.00 | 85 | 1010.8 |
| 20260831103550 | 76 | 203 | 1.0 | 2.0 | 0.00 | 0.00 | 0.00 | 85 | 1010.8 |
| 20260831103046 | 76 | 203 | 0.0 | 2.0 | 0.00 | 0.00 | 0.00 | 85 | 1010.8 |
| 20260831102540 | 76 | 203 | 0.0 | 2.0 | 0.00 | 0.00 | 0.00 | 85 | 1010.8 |
| 20260831102040 | 76 | 203 | 0.0 | 2.0 | 0.00 | 0.00 | 0.00 | 85 | 1010.8 |
| 20260831101536 | 76 | 203 | 1.0 | 2.0 | 0.00 | 0.00 | 0.00 | 85 | 1010.7 |
| 20260831101051 | 76 | 203 | 0.0 | 0.0 | 0.00 | 0.00 | 0.00 | 84 | 1010.7 |
| 20260831100558 | 76 | 203 | 0.0 | 1.0 | 0.00 | 0.00 | 0.00 | 84 | 1010.7 |
| 20260831100035 | 76 | 203 | 0.0 | 1.0 | 0.00 | 0.00 | 0.00 | 83 | 1010.7 |
| 20260831095532 | 76 | 203 | 0.0 | 1.0 | 0.00 | 0.00 | 0.00 | 83 | 1010.6 |
| 20260831095047 | 76 | 203 | 0.0 | 0.0 | 0.00 | 0.00 | 0.00 | 83 | 1010.5 |
| 20260831094544 | 76 | 203 | 0.0 | 2.0 | 0.00 | 0.00 | 0.00 | 82 | 1010.3 |
| 20260831094101 | 77 | 203 | 1.0 | 2.0 | 0.00 | 0.00 | 0.00 | 82 | 1010.3 |
| 20260831093537 | 77 | 203 | 0.0 | 2.0 | 0.00 | 0.00 | 0.00 | 82 | 1010.2 |
| 20260831093034 | 77 | 203 | 1.0 | 2.0 | 0.00 | 0.00 | 0.00 | 82 | 1010.2 |
| 20260831092530 | 77 | 203 | 0.0 | 2.0 | 0.00 | 0.00 | 0.00 | 81 | 1010.1 |
| 20260831092045 | 77 | 203 | 0.0 | 2.0 | 0.00 | 0.00 | 0.00 | 81 | 1010.1 |
| 20260831091542 | 77 | 203 | 0.0 | 4.0 | 0.00 | 0.00 | 0.00 | 81 | 1010.1 |
| 20260831091038 | 77 | 203 | 2.0 | 4.0 | 0.00 | 0.00 | 0.00 | 81 | 1010.1 |
| 20260831090610 | 77 | 203 | 0.0 | 2.0 | 0.00 | 0.00 | 0.00 | 81 | 1009.9 |
| 20260831090105 | 77 | 203 | 1.0 | 4.0 | 0.00 | 0.00 | 0.00 | 80 | 1010.0 |
| 20260831085539 | 77 | 203 | 1.0 | 4.0 | 0.00 | 0.00 | 0.00 | 80 | 1010.0 |
| 20260831085037 | 77 | 205 | 1.0 | 4.0 | 0.00 | 0.00 | 0.00 | 80 | 1009.9 |
| 20260831084532 | 77 | 213 | 1.0 | 3.0 | 0.00 | 0.00 | 0.00 | 79 | 1009.9 |
| 20260831084048 | 78 | 214 | 1.0 | 3.0 | 0.00 | 0.00 | 0.00 | 79 | 1009.9 |
| 20260831083544 | 78 | 217 | 1.0 | 3.0 | 0.00 | 0.00 | 0.00 | 79 | 1009.9 |
| 20260831083044 | 78 | 217 | 1.0 | 4.0 | 0.00 | 0.00 | 0.00 | 79 | 1009.8 |
| 20260831082540 | 78 | 217 | 1.0 | 6.0 | 0.00 | 0.00 | 0.00 | 78 | 1009.8 |
| 20260831082036 | 78 | 209 | 1.0 | 6.0 | 0.00 | 0.00 | 0.00 | 78 | 1009.8 |
| 20260831081532 | 78 | 175 | 2.0 | 5.0 | 0.00 | 0.00 | 0.00 | 78 | 1009.7 |
| 20260831081049 | 79 | 198 | 2.0 | 8.0 | 0.00 | 0.00 | 0.00 | 78 | 1009.7 |
| 20260831080556 | 79 | 200 | 1.0 | 8.0 | 0.00 | 0.00 | 0.00 | 78 | 1009.6 |
| 20260831080032 | 79 | 185 | 1.0 | 4.0 | 0.00 | 0.00 | 0.00 | 78 | 1009.6 |
| 20260831075548 | 79 | 165 | 1.0 | 4.0 | 0.00 | 0.00 | 0.00 | 77 | 1009.5 |
| 20260831075044 | 79 | 139 | 2.0 | 5.0 | 0.00 | 0.00 | 0.00 | 77 | 1009.6 |
| 20260831074540 | 79 | 124 | 2.0 | 5.0 | 0.00 | 0.00 | 0.00 | 77 | 1009.7 |
| 20260831074055 | 79 | 201 | 2.0 | 5.0 | 0.00 | 0.00 | 0.00 | 77 | 1009.8 |
| 20260831073531 | 79 | 203 | 1.0 | 7.0 | 0.00 | 0.00 | 0.00 | 78 | 1009.9 |
| 20260831073108 | 79 | 200 | 2.0 | 7.0 | 0.00 | 0.00 | 0.00 | 78 | 1010.0 |
| 20260831072542 | 79 | 191 | 2.0 | 5.0 | 0.00 | 0.00 | 0.00 | 79 | 1010.1 |
| 20260831072037 | 79 | 194 | 3.0 | 5.0 | 0.00 | 0.00 | 0.00 | 79 | 1010.1 |
| 20260831071533 | 79 | 191 | 1.0 | 3.0 | 0.00 | 0.00 | 0.00 | 79 | 1010.1 |
| 20260831071049 | 79 | 192 | 1.0 | 3.0 | 0.00 | 0.00 | 0.00 | 79 | 1010.1 |
| 20260831070618 | 79 | 192 | 2.0 | 4.0 | 0.00 | 0.00 | 0.00 | 79 | 1010.1 |
| 20260831070035 | 79 | 193 | 1.0 | 4.0 | 0.00 | 0.00 | 0.00 | 79 | 1010.3 |
| 20260831065529 | 80 | 193 | 2.0 | 4.0 | 0.00 | 0.00 | 0.00 | 79 | 1010.3 |
| 20260831065030 | 80 | 243 | 1.0 | 3.0 | 0.00 | 0.00 | 0.00 | 78 | 1010.2 |
| 20260831064604 | 80 | 259 | 1.0 | 2.0 | 0.00 | 0.00 | 0.00 | 78 | 1010.2 |
| 20260831064041 | 80 | 259 | 1.0 | 2.0 | 0.00 | 0.00 | 0.00 | 78 | 1010.1 |
| 20260831063556 | 80 | 259 | 1.0 | 2.0 | 0.00 | 0.00 | 0.00 | 77 | 1010.0 |
| 20260831063035 | 80 | 259 | 1.0 | 4.0 | 0.00 | 0.00 | 0.00 | 78 | 1010.0 |
| 20260831062548 | 80 | 259 | 1.0 | 4.0 | 0.00 | 0.00 | 0.00 | 77 | 1010.0 |
| 20260831062047 | 81 | 183 | 1.0 | 2.0 | 0.00 | 0.00 | 0.00 | 76 | 1009.9 |
| 20260831061541 | 81 | 183 | 1.0 | 3.0 | 0.00 | 0.00 | 0.00 | 75 | 1009.7 |
| 20260831061039 | 81 | 183 | 2.0 | 3.0 | 0.00 | 0.00 | 0.00 | 74 | 1009.6 |
| 20260831060633 | 81 | 181 | 1.0 | 4.0 | 0.00 | 0.00 | 0.00 | 74 | 1009.5 |
| 20260831060046 | 82 | 188 | 2.0 | 7.0 | 0.00 | 0.00 | 0.00 | 74 | 1009.5 |
| 20260831055540 | 82 | 195 | 2.0 | 5.0 | 0.00 | 0.00 | 0.00 | 74 | 1009.4 |
| 20260831055055 | 82 | 194 | 2.0 | 5.0 | 0.00 | 0.00 | 0.00 | 73 | 1009.4 |
| 20260831054551 | 82 | 194 | 1.0 | 4.0 | 0.00 | 0.00 | 0.00 | 74 | 1009.3 |
| 20260831054046 | 82 | 182 | 2.0 | 4.0 | 0.00 | 0.00 | 0.00 | 74 | 1009.3 |
| 20260831053541 | 82 | 164 | 1.0 | 5.0 | 0.00 | 0.00 | 0.00 | 74 | 1009.2 |
| 20260831053037 | 83 | 157 | 2.0 | 5.0 | 0.00 | 0.00 | 0.00 | 74 | 1009.2 |
| 20260831052533 | 83 | 130 | 2.0 | 5.0 | 0.00 | 0.00 | 0.00 | 73 | 1009.3 |
| 20260831052048 | 83 | 193 | 2.0 | 6.0 | 0.00 | 0.00 | 0.00 | 74 | 1009.2 |
| 20260831051545 | 83 | 201 | 2.0 | 6.0 | 0.00 | 0.00 | 0.00 | 74 | 1009.2 |
| 20260831051041 | 83 | 189 | 1.0 | 3.0 | 0.00 | 0.00 | 0.00 | 74 | 1009.2 |
| 20260831050549 | 83 | 189 | 1.0 | 3.0 | 0.00 | 0.00 | 0.00 | 75 | 1009.2 |
| 20260831050038 | 83 | 190 | 0.0 | 2.0 | 0.00 | 0.00 | 0.00 | 75 | 1009.3 |
| 20260831045548 | 84 | 190 | 1.0 | 2.0 | 0.00 | 0.00 | 0.00 | 74 | 1009.4 |
| 20260831045112 | 84 | 190 | 0.0 | 2.0 | 0.00 | 0.00 | 0.00 | 74 | 1009.4 |
| 20260831044545 | 84 | 190 | 1.0 | 2.0 | 0.00 | 0.00 | 0.00 | 73 | 1009.3 |
| 20260831044036 | 84 | 190 | 0.0 | 2.0 | 0.00 | 0.00 | 0.00 | 73 | 1009.2 |
| 20260831043533 | 84 | 190 | 1.0 | 3.0 | 0.00 | 0.00 | 0.00 | 73 | 1009.3 |
| 20260831043048 | 84 | 190 | 1.0 | 3.0 | 0.00 | 0.00 | 0.00 | 73 | 1009.3 |
| 20260831042543 | 85 | 190 | 2.0 | 2.0 | 0.00 | 0.00 | 0.00 | 73 | 1009.2 |
| 20260831042059 | 85 | 190 | 2.0 | 3.0 | 0.00 | 0.00 | 0.00 | 73 | 1009.3 |
| 20260831041553 | 85 | 190 | 2.0 | 3.0 | 0.00 | 0.00 | 0.00 | 72 | 1009.3 |
| 20260831041111 | 85 | 190 | 2.0 | 3.0 | 0.00 | 0.00 | 0.00 | 72 | 1009.4 |
| 20260831040557 | 85 | 191 | 2.0 | 3.0 | 0.00 | 0.00 | 0.00 | 71 | 1009.4 |
| 20260831040037 | 85 | 191 | 1.0 | 2.0 | 0.00 | 0.00 | 0.00 | 71 | 1009.5 |
| 20260831035534 | 85 | 191 | 1.0 | 3.0 | 0.00 | 0.00 | 0.00 | 70 | 1009.5 |
| 20260831035032 | 85 | 191 | 2.0 | 3.0 | 0.00 | 0.00 | 0.00 | 69 | 1009.6 |
| 20260831034550 | 86 | 191 | 1.0 | 2.0 | 0.00 | 0.00 | 0.00 | 68 | 1009.6 |
| 20260831034049 | 86 | 191 | 1.0 | 2.0 | 0.00 | 0.00 | 0.00 | 68 | 1009.6 |
| 20260831033609 | 86 | 191 | 1.0 | 2.0 | 0.00 | 0.00 | 0.00 | 68 | 1009.6 |
| 20260831033045 | 85 | 191 | 1.0 | 2.0 | 0.00 | 0.00 | 0.00 | 69 | 1009.6 |
| 20260831032543 | 85 | 191 | 1.0 | 2.0 | 0.00 | 0.00 | 0.00 | 69 | 1009.6 |
| 20260831032044 | 85 | 191 | 1.0 | 2.0 | 0.00 | 0.00 | 0.00 | 70 | 1009.6 |
| 20260831031541 | 84 | 191 | 0.0 | 0.0 | 0.00 | 0.00 | 0.00 | 71 | 1009.7 |
| 20260831031039 | 84 | 191 | 0.0 | 0.0 | 0.00 | 0.00 | 0.00 | 72 | 1009.7 |
| 20260831030613 | 84 | 191 | 0.0 | 0.0 | 0.00 | 0.00 | 0.00 | 72 | 1009.8 |
| 20260831030049 | 85 | 191 | 0.0 | 0.0 | 0.00 | 0.00 | 0.00 | 71 | 1009.8 |
| 20260831025547 | 85 | 191 | 0.0 | 0.0 | 0.00 | 0.00 | 0.00 | 71 | 1009.8 |
| 20260831025044 | 85 | 191 | 0.0 | 2.0 | 0.00 | 0.00 | 0.00 | 70 | 1009.8 |
| 20260831024542 | 85 | 191 | 1.0 | 2.0 | 0.00 | 0.00 | 0.00 | 71 | 1009.7 |
| 20260831024101 | 85 | 191 | 1.0 | 2.0 | 0.00 | 0.00 | 0.00 | 71 | 1009.7 |
| 20260831023111 | 85 | 191 | 1.0 | 2.0 | 0.00 | 0.00 | 0.00 | 71 | 1009.7 |
| 20260831022609 | 85 | 191 | 1.0 | 3.0 | 0.00 | 0.00 | 0.00 | 71 | 1009.7 |
| 20260831022046 | 85 | 191 | 1.0 | 3.0 | 0.00 | 0.00 | 0.00 | 71 | 1009.6 |
| 20260831021607 | 85 | 191 | 0.0 | 2.0 | 0.00 | 0.00 | 0.00 | 71 | 1009.6 |
| 20260831021044 | 86 | 191 | 1.0 | 2.0 | 0.00 | 0.00 | 0.00 | 70 | 1009.5 |
| 20260831020553 | 86 | 191 | 1.0 | 2.0 | 0.00 | 0.00 | 0.00 | 70 | 1009.6 |
| 20260831020052 | 86 | 191 | 1.0 | 2.0 | 0.00 | 0.00 | 0.00 | 70 | 1009.6 |
| 20260831015549 | 86 | 191 | 1.0 | 2.0 | 0.00 | 0.00 | 0.00 | 69 | 1009.4 |
| 20260831015110 | 85 | 191 | 0.0 | 2.0 | 0.00 | 0.00 | 0.00 | 69 | 1009.4 |
| 20260831014609 | 85 | 191 | 1.0 | 2.0 | 0.00 | 0.00 | 0.00 | 69 | 1009.3 |
| 20260831014046 | 85 | 191 | 1.0 | 2.0 | 0.00 | 0.00 | 0.00 | 69 | 1009.3 |
| 20260831013606 | 85 | 191 | 0.0 | 1.0 | 0.00 | 0.00 | 0.00 | 69 | 1009.1 |
| 20260831013043 | 86 | 191 | 0.0 | 1.0 | 0.00 | 0.00 | 0.00 | 69 | 1009.1 |
| 20260831012542 | 86 | 191 | 0.0 | 0.0 | 0.00 | 0.00 | 0.00 | 69 | 1009.2 |
| 20260831012044 | 86 | 191 | 0.0 | 0.0 | 0.00 | 0.00 | 0.00 | 68 | 1009.2 |
| 20260831011541 | 86 | 191 | 0.0 | 0.0 | 0.00 | 0.00 | 0.00 | 68 | 1009.2 |
| 20260831011037 | 86 | 191 | 0.0 | 2.0 | 0.00 | 0.00 | 0.00 | 68 | 1009.1 |
| 20260831010610 | 87 | 191 | 0.0 | 2.0 | 0.00 | 0.00 | 0.00 | 68 | 1009.1 |
| 20260831010047 | 87 | 191 | 1.0 | 2.0 | 0.00 | 0.00 | 0.00 | 67 | 1009.0 |
| 20260831005544 | 88 | 191 | 1.0 | 2.0 | 0.00 | 0.00 | 0.00 | 66 | 1009.0 |
| 20260831005043 | 88 | 191 | 1.0 | 2.0 | 0.00 | 0.00 | 0.00 | 65 | 1009.0 |
| 20260831004539 | 89 | 191 | 0.0 | 2.0 | 0.00 | 0.00 | 0.00 | 63 | 1009.0 |
| 20260831004038 | 89 | 191 | 0.0 | 1.0 | 0.00 | 0.00 | 0.00 | 62 | 1009.0 |
| 20260831003535 | 90 | 191 | 0.0 | 1.0 | 0.00 | 0.00 | 0.00 | 61 | 1009.0 |
| 20260831003034 | 90 | 191 | 1.0 | 2.0 | 0.00 | 0.00 | 0.00 | 60 | 1009.0 |
| 20260831002551 | 91 | 191 | 1.0 | 5.0 | 0.00 | 0.00 | 0.00 | 59 | 1009.1 |
| 20260831002049 | 91 | 191 | 1.0 | 5.0 | 0.00 | 0.00 | 0.00 | 59 | 1009.1 |
| 20260831001546 | 91 | 191 | 1.0 | 4.0 | 0.00 | 0.00 | 0.00 | 59 | 1009.0 |
| 20260831001043 | 91 | 191 | 1.0 | 3.0 | 0.00 | 0.00 | 0.00 | 57 | 1008.9 |
| 20260831000557 | 92 | 191 | 1.0 | 4.0 | 0.00 | 0.00 | 0.00 | 57 | 1008.9 |
| 20260831000035 | 92 | 191 | 2.0 | 4.0 | 0.00 | 0.00 | 0.00 | 57 | 1008.9 |
| 20260830235534 | 92 | 189 | 1.0 | 5.0 | 0.00 | 0.00 | 0.00 | 57 | 1009.0 |
| 20260830235032 | 92 | 188 | 3.0 | 5.0 | 0.00 | 0.00 | 0.00 | 57 | 1009.0 |
| 20260830234550 | 93 | 175 | 2.0 | 4.0 | 0.00 | 0.00 | 0.00 | 56 | 1009.1 |